This demonstration page uses our WeatherBlox Daily Observations layout. Learn more.

Left ArrowRight Arrow

41.55636, -103.73856

Hourly Observations for October 6, 2021

Temp ( °F °C ) Dew Point ( °F °C ) Humidity (%) Winds ( mph kmh ) Pressure ( in mb ) Visibility ( mi km ) Precip ( " mm )
12:58 am 00:58 Clear 58 14.6 32 0 37 37 S 26 43 29.98 1015 10 16 0.00 0.00
1:58 am 01:58 Clear 57 13.9 31 -0.6 37 37 S 24 39 29.98 1015 10 16 0.00 0.00
2:58 am 02:58 Clear 56 13.4 32 -0.2 39 39 S 24 39 29.98 1015 10 16 0.00 0.00
3:58 am 03:58 Clear 55 12.6 32 0.2 43 43 S 25 41 29.94 1014 10 16 0.00 0.00
4:58 am 04:58 Clear 56 13.3 35 1.5 45 45 S 21 33 29.95 1014 10 16 0.00 0.00
5:58 am 05:58 Clear 54 12.3 36 2 50 50 S 17 28 29.97 1015 10 16 0.00 0.00
6:58 am 06:58 Sunny 53 11.7 36 2.2 52 52 S 12 19 29.98 1015 10 16 0.00 0.00
7:58 am 07:58 Sunny 54 12.1 37 2.6 53 53 WNW 5 7 30.02 1017 10 16 0.00 0.00
8:58 am 08:58 Sunny 57 13.8 37 2.8 48 48 WSW 6 9 30.00 1016 10 16 0.00 0.00
9:58 am 09:58 Sunny 62 16.8 37 3 40 40 Calm 29.99 1016 10 16 0.00 0.00
10:58 am 10:58 Sunny 74 23.1 37 2.7 26 26 S 21 33 29.94 1014 10 16 0.00 0.00
11:58 am 11:58 Sunny 77 24.9 35 1.8 22 22 SSE 23 37 29.90 1013 10 16 0.00 0.00
12:58 pm 12:58 Sunny 80 26.4 35 1.4 20 20 S 25 41 29.87 1012 10 16 0.00 0.00
1:58 pm 13:58 Sunny 83 28.1 34 1 17 17 SSE 21 33 29.83 1010 10 16 0.00 0.00
2:58 pm 14:58 Sunny 84 28.7 30 -0.9 14 14 SSW 20 31 29.81 1010 10 16 0.00 0.00
3:58 pm 15:58 Sunny 83 28.3 30 -1.1 15 15 S 18 30 29.82 1010 10 16 0.00 0.00
4:58 pm 16:58 Sunny 82 27.5 30 -1.3 15 15 SSE 16 26 29.80 1009 10 16 0.00 0.00
5:58 pm 17:58 Sunny 76 24.2 35 1.8 23 23 SE 17 28 29.83 1010 10 16 0.00 0.00
6:58 pm 18:58 Mostly Cloudy 73 22.8 37 2.6 27 27 SSE 20 31 29.85 1011 10 16 0.00 0.00
7:58 pm 19:58 Mostly Cloudy 73 22.7 37 2.6 27 27 NNE 7 11 29.90 1012 10 16 0.00 0.00
8:58 pm 20:58 Mostly Cloudy 68 20.1 37 2.6 31 31 S 9 15 29.93 1013 10 16 0.00 0.00
9:58 pm 21:58 Mostly Cloudy 67 19.3 37 3 34 34 SSE 12 19 29.92 1013 10 16 0.00 0.00
10:58 pm 22:58 Cloudy 65 18.1 39 3.8 39 39 SE 10 17 29.89 1012 10 16 0.00 0.00
11:58 pm 23:58 Mostly Cloudy 63 17 39 4.1 43 43 E 7 11 29.90 1013 10 16 0.00 0.00

Powered by AerisWeather